Location: Berlin
(52.5171°N, 13.3759°E)
Time: 19:45:18
(UTC+02:00)

ISS - Pass Details

Date: 05 January 2018
Orbit: 402 x 408 km, 51.6° (Epoch: 23 July)

Event Time Altitude Azimuth Distance (km) Brightness Sun altitude
Exits shadow 06:10:05 54° 249° (WSW) 513 -3.7 -18.0°
Maximum altitude 06:10:44 78° 177° (S) 434 -3.8 -17.9°
Drops below altitude 10° 06:14:07 10° 91° (E) 1,506 0.3 -17.4°
Sets 06:16:13 0° 90° (E) 2,374 1.6 -17.1°
